Location: Vancouver
(49.2500°N, 123.1330°W)
Time: 08:22:06
(UTC-07:00)

Cosmos 2333 Rocket - Visible Passes

Search period start: 17 August 2017 00:00
Search period end: 27 August 2017 00:00
Orbit: 841 x 860 km, 70.9° (Epoch: 16 August)

Date Brightness Start Highest point End Pass type
(mag) Time Alt. Az. Time Alt. Az. Time Alt. Az.
17 Aug 3.0 01:21:33 37° W 01:23:05 46° NW 01:28:31 10° NNE visible
17 Aug 4.6 03:06:04 10° WNW 03:08:53 14° NNW 03:11:41 10° N visible
17 Aug 3.0 23:27:12 34° E 23:27:12 34° E 23:31:41 10° NE visible
18 Aug 3.0 01:09:11 37° W 01:10:45 46° NW 01:16:12 10° NNE visible
18 Aug 4.7 02:53:45 10° WNW 02:56:33 14° NNW 02:59:22 10° N visible
18 Aug 2.9 23:14:46 35° E 23:14:46 35° E 23:19:22 10° NE visible
19 Aug 3.0 00:56:44 36° W 00:58:26 46° NW 01:03:53 10° NNE visible
19 Aug 4.7 02:41:25 10° WNW 02:44:14 14° NNW 02:47:03 10° N visible
19 Aug 2.9 23:02:15 35° E 23:02:15 35° E 23:07:02 10° NE visible
20 Aug 3.0 00:44:13 34° W 00:46:06 46° NW 00:51:33 10° NNE visible
20 Aug 4.7 02:29:06 10° WNW 02:31:54 14° NNW 02:34:44 10° N visible
20 Aug 2.8 22:49:40 35° ESE 22:49:40 35° ESE 22:54:43 10° NE visible
21 Aug 3.1 00:31:37 32° WSW 00:33:47 46° NW 00:39:14 10° NNE visible
21 Aug 4.8 02:16:46 10° WNW 02:19:35 14° NNW 02:22:24 10° N visible
21 Aug 2.8 22:36:58 35° ESE 22:37:18 35° ESE 22:42:24 10° NE visible
22 Aug 3.1 00:18:55 28° WSW 00:21:27 46° NW 00:26:54 10° NNE visible
22 Aug 4.8 02:04:26 10° WNW 02:07:15 14° NNW 02:10:05 10° N visible
22 Aug 5.0 05:39:14 10° N 05:41:42 13° NNE 05:44:09 10° NE visible
22 Aug 2.8 22:24:07 33° SE 22:24:59 35° ESE 22:30:04 10° NE visible
23 Aug 3.1 00:06:03 24° WSW 00:09:08 46° NW 00:14:35 10° NNE visible
23 Aug 4.8 01:52:07 10° WNW 01:54:56 14° NNW 01:57:45 10° N visible
23 Aug 5.0 05:26:54 10° N 05:29:22 13° NNE 05:31:50 10° NE visible
23 Aug 2.8 22:11:01 29° SE 22:12:40 35° ESE 22:17:44 10° NE visible
23 Aug 3.1 23:52:56 19° WSW 23:56:49 46° NW 00:02:16 10° NNE visible
24 Aug 4.9 01:39:47 10° WNW 01:42:37 14° NNW 01:45:26 10° N visible
24 Aug 5.1 05:14:35 10° N 05:17:02 13° NNE 05:19:30 10° NE visible
24 Aug 2.8 21:57:32 22° SSE 22:00:20 35° ESE 22:05:25 10° NE visible
24 Aug 3.1 23:39:25 12° SW 23:44:30 46° NW 23:49:56 10° NNE visible
25 Aug 4.9 01:27:28 10° WNW 01:30:17 14° NNW 01:33:07 10° N visible
25 Aug 5.1 05:02:16 10° N 05:04:43 13° NNE 05:07:11 10° NE visible
25 Aug 2.8 21:43:10 11° S 21:48:01 35° ESE 21:53:06 10° NE visible
25 Aug 3.1 23:26:44 10° SW 23:32:10 46° NW 23:37:37 10° NNE visible
26 Aug 4.9 01:15:08 10° WNW 01:17:58 14° NNW 01:20:48 10° N visible
26 Aug 5.1 04:49:56 10° N 04:52:24 13° NNE 04:54:51 10° NE visible
26 Aug 2.8 21:30:38 10° S 21:35:42 35° ESE 21:40:46 10° NE visible
26 Aug 3.2 23:14:24 10° SW 23:19:50 46° NW 23:25:18 10° NNE visible
